| time (UTC) | temp F | wind direction | speed MPH | gust MPH | rain 1hr in | rain 24hr in | rain mn in | humidity % | barometer mb |
| 20260507040040 | 65 | 246 | 0.0 | 4.0 | 0.00 | 0.00 | 0.00 | 66 | 1016.4 |
| 20260507034543 | 65 | 241 | 0.0 | 3.0 | 0.00 | 0.00 | 0.00 | 66 | 1016.2 |
| 20260507033039 | 66 | 176 | 0.0 | 3.0 | 0.00 | 0.00 | 0.00 | 66 | 1016.1 |
| 20260507031538 | 66 | 181 | 0.0 | 3.0 | 0.00 | 0.00 | 0.00 | 65 | 1015.8 |
| 20260507030038 | 67 | 167 | 2.0 | 5.0 | 0.00 | 0.00 | 0.00 | 64 | 1015.7 |
| 20260507024541 | 67 | 166 | 1.0 | 7.0 | 0.00 | 0.00 | 0.00 | 63 | 1015.5 |
| 20260507023036 | 68 | 169 | 1.0 | 4.0 | 0.00 | 0.00 | 0.00 | 62 | 1015.4 |
| 20260507021536 | 69 | 215 | 0.0 | 4.0 | 0.00 | 0.00 | 0.00 | 61 | 1015.3 |
| 20260507020044 | 70 | 221 | 1.0 | 6.0 | 0.00 | 0.00 | 0.00 | 60 | 1015.2 |
| 20260507014536 | 71 | 178 | 3.0 | 7.0 | 0.00 | 0.00 | 0.00 | 59 | 1015.1 |
| 20260507013034 | 71 | 165 | 3.0 | 7.0 | 0.00 | 0.00 | 0.00 | 58 | 1014.9 |
| 20260507011533 | 72 | 199 | 1.0 | 7.0 | 0.00 | 0.00 | 0.00 | 57 | 1014.9 |
| 20260507010034 | 73 | 234 | 2.0 | 8.0 | 0.00 | 0.00 | 0.00 | 56 | 1014.7 |
| 20260507004534 | 73 | 212 | 2.0 | 8.0 | 0.00 | 0.00 | 0.00 | 55 | 1014.7 |
| 20260507003033 | 73 | 210 | 2.0 | 9.0 | 0.00 | 0.00 | 0.00 | 54 | 1014.7 |
| 20260507001537 | 73 | 240 | 3.0 | 7.0 | 0.00 | 0.00 | 0.00 | 54 | 1014.6 |
| 20260507000030 | 73 | 284 | 2.0 | 7.0 | 0.00 | 0.00 | 0.00 | 54 | 1014.6 |
| 20260506234529 | 73 | 231 | 3.0 | 8.0 | 0.00 | 0.00 | 0.00 | 55 | 1014.6 |
| 20260506233028 | 74 | 214 | 2.0 | 11.0 | 0.00 | 0.00 | 0.00 | 52 | 1014.6 |
| 20260506231528 | 75 | 161 | 2.0 | 9.0 | 0.00 | 0.00 | 0.00 | 51 | 1014.7 |
| 20260506230025 | 75 | 169 | 4.0 | 9.0 | 0.00 | 0.00 | 0.00 | 49 | 1014.8 |
| 20260506224525 | 76 | 186 | 3.0 | 10.0 | 0.00 | 0.00 | 0.00 | 50 | 1014.9 |
| 20260506223023 | 76 | 213 | 2.0 | 10.0 | 0.00 | 0.00 | 0.00 | 51 | 1015.0 |
| 20260506221522 | 75 | 166 | 2.0 | 6.0 | 0.00 | 0.00 | 0.00 | 51 | 1015.0 |
| 20260506220020 | 75 | 182 | 3.0 | 9.0 | 0.00 | 0.00 | 0.00 | 51 | 1015.3 |
| 20260506214518 | 75 | 163 | 4.0 | 8.0 | 0.00 | 0.00 | 0.00 | 51 | 1015.4 |
| 20260506213017 | 75 | 148 | 3.0 | 5.0 | 0.00 | 0.00 | 0.00 | 52 | 1015.6 |
| 20260506211515 | 75 | 178 | 1.0 | 8.0 | 0.00 | 0.00 | 0.00 | 52 | 1015.8 |
| 20260506210019 | 75 | 246 | 2.0 | 9.0 | 0.00 | 0.00 | 0.00 | 53 | 1016.0 |
| 20260506204514 | 75 | 232 | 4.0 | 9.0 | 0.00 | 0.00 | 0.00 | 52 | 1016.1 |
| 20260506203010 | 75 | 173 | 2.0 | 6.0 | 0.00 | 0.00 | 0.00 | 50 | 1016.2 |
| 20260506201508 | 75 | 250 | 3.0 | 7.0 | 0.00 | 0.00 | 0.00 | 49 | 1016.3 |
| 20260506200005 | 74 | 180 | 2.0 | 8.0 | 0.00 | 0.00 | 0.00 | 50 | 1016.6 |
| 20260506194504 | 73 | 246 | 2.0 | 6.0 | 0.00 | 0.00 | 0.00 | 51 | 1016.9 |
| 20260506193003 | 74 | 280 | 2.0 | 9.0 | 0.00 | 0.00 | 0.00 | 51 | 1016.9 |
| 20260506191502 | 71 | 205 | 2.0 | 6.0 | 0.00 | 0.00 | 0.00 | 52 | 1017.2 |
| 20260506190059 | 73 | 262 | 2.0 | 7.0 | 0.00 | 0.00 | 0.00 | 53 | 1017.4 |
| 20260506184558 | 71 | 213 | 1.0 | 6.0 | 0.00 | 0.00 | 0.00 | 54 | 1017.5 |
| 20260506183105 | 71 | 246 | 3.0 | 6.0 | 0.00 | 0.00 | 0.00 | 53 | 1017.7 |
| 20260506181553 | 69 | 207 | 1.0 | 7.0 | 0.00 | 0.00 | 0.00 | 57 | 1017.7 |
| 20260506180052 | 70 | 173 | 1.0 | 6.0 | 0.00 | 0.00 | 0.00 | 56 | 1017.8 |
| 20260506174548 | 68 | 158 | 1.0 | 7.0 | 0.00 | 0.00 | 0.00 | 58 | 1017.8 |
| 20260506173049 | 68 | 168 | 2.0 | 5.0 | 0.00 | 0.00 | 0.00 | 57 | 1017.8 |
| 20260506171555 | 68 | 155 | 2.0 | 5.0 | 0.00 | 0.00 | 0.00 | 59 | 1017.9 |
| 20260506170046 | 67 | 153 | 1.0 | 5.0 | 0.00 | 0.00 | 0.00 | 62 | 1017.8 |
| 20260506164542 | 67 | 205 | 3.0 | 8.0 | 0.00 | 0.00 | 0.00 | 63 | 1017.9 |
| 20260506163042 | 65 | 229 | 1.0 | 6.0 | 0.00 | 0.00 | 0.00 | 68 | 1017.9 |
| 20260506161534 | 63 | 115 | 0.0 | 4.0 | 0.00 | 0.00 | 0.00 | 74 | 1017.9 |
| 20260506160032 | 62 | 209 | 1.0 | 4.0 | 0.00 | 0.00 | 0.00 | 79 | 1018.0 |
| 20260506154527 | 60 | 224 | 0.0 | 3.0 | 0.00 | 0.00 | 0.00 | 83 | 1017.9 |
| 20260506153024 | 59 | 164 | 0.0 | 3.0 | 0.00 | 0.00 | 0.00 | 86 | 1018.1 |
| 20260506151530 | 59 | 125 | 0.0 | 3.0 | 0.00 | 0.00 | 0.00 | 89 | 1018.1 |
| 20260506150018 | 57 | 59 | 0.0 | 3.0 | 0.00 | 0.00 | 0.00 | 90 | 1018.0 |
| 20260506144514 | 56 | 131 | 0.0 | 2.0 | 0.00 | 0.01 | 0.00 | 90 | 1018.1 |
| 20260506143015 | 55 | 109 | 0.0 | 2.0 | 0.00 | 0.01 | 0.00 | 90 | 1018.0 |
| 20260506141512 | 54 | 109 | 1.0 | 3.0 | 0.00 | 0.01 | 0.00 | 90 | 1017.9 |
| 20260506140015 | 53 | 137 | 0.0 | 0.0 | 0.00 | 0.01 | 0.00 | 90 | 1017.9 |
| 20260506134510 | 51 | 140 | 0.0 | 0.0 | 0.00 | 0.01 | 0.00 | 90 | 1017.8 |
| 20260506133009 | 51 | 140 | 0.0 | 0.0 | 0.00 | 0.01 | 0.00 | 89 | 1017.6 |
| 20260506131512 | 51 | 140 | 0.0 | 0.0 | 0.00 | 0.01 | 0.00 | 89 | 1017.4 |
| 20260506130006 | 51 | 140 | 0.0 | 0.0 | 0.00 | 0.01 | 0.00 | 89 | 1017.3 |
| 20260506124503 | 51 | 140 | 0.0 | 0.0 | 0.00 | 0.01 | 0.00 | 89 | 1017.2 |
| 20260506123004 | 52 | 140 | 0.0 | 0.0 | 0.00 | 0.01 | 0.00 | 88 | 1017.1 |
| 20260506121500 | 52 | 140 | 0.0 | 0.0 | 0.00 | 0.01 | 0.00 | 88 | 1016.9 |
| 20260506120100 | 52 | 140 | 0.0 | 0.0 | 0.00 | 0.01 | 0.00 | 88 | 1017.0 |
| 20260506114604 | 52 | 140 | 0.0 | 0.0 | 0.00 | 0.02 | 0.00 | 88 | 1016.9 |
| 20260506113102 | 52 | 140 | 0.0 | 0.0 | 0.00 | 0.02 | 0.00 | 88 | 1016.8 |
| 20260506111605 | 53 | 140 | 0.0 | 0.0 | 0.00 | 0.02 | 0.00 | 88 | 1016.7 |
| 20260506110055 | 53 | 140 | 0.0 | 0.0 | 0.00 | 0.02 | 0.00 | 87 | 1016.7 |
| 20260506104558 | 53 | 140 | 0.0 | 0.0 | 0.00 | 0.04 | 0.00 | 87 | 1016.9 |
| 20260506103059 | 54 | 140 | 0.0 | 0.0 | 0.00 | 0.04 | 0.00 | 87 | 1016.8 |
| 20260506101553 | 54 | 140 | 0.0 | 0.0 | 0.00 | 0.04 | 0.00 | 87 | 1016.8 |
| 20260506100054 | 54 | 140 | 0.0 | 0.0 | 0.00 | 0.04 | 0.00 | 87 | 1016.8 |
| 20260506094550 | 54 | 140 | 0.0 | 0.0 | 0.00 | 0.05 | 0.00 | 86 | 1016.8 |
| 20260506093048 | 54 | 140 | 0.0 | 0.0 | 0.00 | 0.05 | 0.00 | 86 | 1016.9 |
| 20260506091551 | 53 | 140 | 0.0 | 0.0 | 0.00 | 0.05 | 0.00 | 86 | 1016.9 |
| 20260506090046 | 54 | 140 | 0.0 | 0.0 | 0.00 | 0.05 | 0.00 | 85 | 1017.1 |
| 20260506084545 | 54 | 140 | 0.0 | 0.0 | 0.00 | 0.05 | 0.00 | 85 | 1017.1 |
| 20260506083042 | 54 | 140 | 0.0 | 0.0 | 0.00 | 0.05 | 0.00 | 84 | 1017.3 |
| 20260506081540 | 54 | 140 | 0.0 | 0.0 | 0.00 | 0.05 | 0.00 | 84 | 1017.3 |
| 20260506073037 | 55 | 140 | 0.0 | 0.0 | 0.00 | 0.05 | 0.00 | 82 | 1017.2 |
| 20260506071534 | 56 | 140 | 0.0 | 0.0 | 0.00 | 0.05 | 0.00 | 81 | 1017.2 |
| 20260506061527 | 57 | 140 | 0.0 | 0.0 | 0.00 | 0.05 | 0.05 | 78 | 1016.9 |
| 20260506044520 | 60 | 179 | 0.0 | 4.0 | 0.00 | 0.05 | 0.05 | 71 | 1016.1 |
| 20260506043017 | 60 | 180 | 0.0 | 4.0 | 0.00 | 0.05 | 0.05 | 70 | 1015.8 |
| 20260506041516 | 60 | 166 | 0.0 | 3.0 | 0.00 | 0.05 | 0.05 | 69 | 1015.7 |